Weather History for Franklin, PA

Change the Weather History Date:

Friday, December 28, 2012

  Actual Average Record
Temperature  
Mean Temperature 24 °F -  
Max Temperature 28 °F 34 °F 61 °F (1936)
Min Temperature 19 °F 18 °F -14 °F (1950)
Degree Days  
Heating Degree Days 42    
Moisture  
Dew Point 19 °F    
Average Humidity 78    
Maximum Humidity 93    
Minimum Humidity 64    
Precipitation  
Precipitation 0.05 in - - ()
Sea Level Pressure  
Sea Level Pressure 30.05 in    
Wind  
Wind Speed 5 mph (NW)    
Max Wind Speed 10 mph    
Max Gust Speed 16 mph    
Visibility 10 miles    
Events      
Averages and records for this station are not official NWS values.
T = Trace of Precipitation, MM = Missing Value Source: NWS Daily Summary

Daily Weather History Graph

Daily Weather History Graph

Search for Another Location

Airport:

Trip Planner

Search our weather history database for the weather conditions in past years. The results will help you decide how hot, cold, wet, or windy it might be!

Date:

Astronomy

Dec. 28, 2012 Rise Set
Actual Time 7:44 AM EST 4:57 PM EST
Civil Twilight 7:13 AM EST 5:29 PM EST
Nautical Twilight 6:38 AM EST 6:03 PM EST
Astronomical Twilight 6:05 AM EST 6:37 PM EST
Moon 5:33 PM EST (12/28) 7:37 AM EST (12/28)
Length of Visible Light 10h 15m
Length of Day
9h 12m
Full, 100% of the Moon is Illuminated
Dec 28
Full
Jan 4
Last Quarter
Jan 11
New
Jan 18
First Quarter
Jan 26
Full

Hourly Weather History & Observations

Time (EST) Temp. Windchill Dew Point Humidity Pressure Visibility Wind Dir Wind Speed Gust Speed Precip Events Conditions
12:35 AM 26.6 °F 18.2 °F 21.2 °F 80% 30.04 in 10.0 mi NW 8.1 mph - N/A   Overcast
12:55 AM 26.6 °F 21.2 °F 21.2 °F 80% 30.04 in 10.0 mi WNW 4.6 mph 16.1 mph N/A   Overcast
1:15 AM 26.6 °F 19.1 °F 21.2 °F 80% 30.05 in 10.0 mi NW 6.9 mph 16.1 mph N/A   Overcast
1:35 AM 26.6 °F 16.8 °F 21.2 °F 80% 30.04 in 10.0 mi NW 10.4 mph - N/A   Overcast
1:55 AM 26.6 °F 20.0 °F 19.4 °F 74% 30.04 in 10.0 mi WNW 5.8 mph - N/A   Overcast
2:15 AM 26.6 °F 19.1 °F 19.4 °F 74% 30.05 in 10.0 mi NNW 6.9 mph - N/A   Overcast
2:35 AM 26.6 °F 22.6 °F 19.4 °F 74% 30.07 in 10.0 mi WNW 3.5 mph - N/A   Overcast
2:55 AM 26.6 °F 20.0 °F 19.4 °F 74% 30.07 in 10.0 mi WNW 5.8 mph - N/A   Overcast
3:15 AM 26.6 °F 19.1 °F 19.4 °F 74% 30.07 in 10.0 mi WNW 6.9 mph - N/A   Overcast
3:35 AM 24.8 °F 16.9 °F 19.4 °F 80% 30.07 in 10.0 mi WNW 6.9 mph - N/A   Overcast
3:55 AM 24.8 °F 16.9 °F 19.4 °F 80% 30.08 in 10.0 mi WNW 6.9 mph - N/A   Overcast
4:15 AM 24.8 °F 17.9 °F 19.4 °F 80% 30.08 in 10.0 mi WNW 5.8 mph - N/A   Overcast
4:35 AM 24.8 °F 17.9 °F 19.4 °F 80% 30.09 in 10.0 mi WNW 5.8 mph - N/A   Overcast
4:55 AM 24.8 °F 19.1 °F 19.4 °F 80% 30.08 in 10.0 mi WNW 4.6 mph - N/A   Overcast
5:15 AM 24.8 °F 19.1 °F 19.4 °F 80% 30.09 in 10.0 mi WNW 4.6 mph - N/A   Overcast
5:35 AM 24.8 °F 17.9 °F 19.4 °F 80% 30.09 in 10.0 mi WNW 5.8 mph - N/A   Overcast
5:55 AM 24.8 °F 17.9 °F 19.4 °F 80% 30.09 in 10.0 mi West 5.8 mph - N/A   Overcast
6:15 AM 24.8 °F 19.1 °F 19.4 °F 80% 30.09 in 10.0 mi West 4.6 mph - N/A   Overcast
6:35 AM 24.8 °F 19.1 °F 19.4 °F 80% 30.09 in 10.0 mi West 4.6 mph - N/A   Overcast
6:55 AM 24.8 °F - 19.4 °F 80% 30.09 in 10.0 mi Calm Calm - N/A   Overcast
7:15 AM 24.8 °F 20.5 °F 19.4 °F 80% 30.09 in 10.0 mi West 3.5 mph - N/A   Overcast
7:35 AM 24.8 °F 20.5 °F 19.4 °F 80% 30.10 in 10.0 mi WSW 3.5 mph - N/A   Overcast
7:55 AM 24.8 °F - 19.4 °F 80% 30.10 in 10.0 mi Calm Calm - N/A   Overcast
8:15 AM 24.8 °F 20.5 °F 19.4 °F 80% 30.10 in 10.0 mi WSW 3.5 mph - N/A   Overcast
8:35 AM 24.8 °F 19.1 °F 19.4 °F 80% 30.10 in 10.0 mi WSW 4.6 mph - N/A   Overcast
8:55 AM 24.8 °F - 19.4 °F 80% 30.09 in 10.0 mi Calm Calm - N/A   Overcast
9:15 AM 26.6 °F - 19.4 °F 74% 30.09 in 10.0 mi Calm Calm - N/A   Overcast
9:35 AM 26.6 °F 22.6 °F 19.4 °F 74% 30.10 in 10.0 mi SW 3.5 mph - N/A   Overcast
9:55 AM 26.6 °F - 19.4 °F 74% 30.10 in 10.0 mi Calm Calm - N/A   Overcast
10:15 AM 26.6 °F 20.0 °F 19.4 °F 74% 30.11 in 10.0 mi West 5.8 mph - N/A   Overcast
10:35 AM 26.6 °F - 19.4 °F 74% 30.10 in 10.0 mi Calm Calm - N/A   Overcast
10:55 AM 26.6 °F - 19.4 °F 74% 30.10 in 10.0 mi Calm Calm - N/A   Overcast
11:15 AM 26.6 °F 20.0 °F 19.4 °F 74% 30.09 in 10.0 mi West 5.8 mph - N/A   Overcast
11:35 AM 26.6 °F 21.2 °F 19.4 °F 74% 30.09 in 10.0 mi West 4.6 mph - N/A   Overcast
11:55 AM 26.6 °F 20.0 °F 19.4 °F 74% 30.11 in 10.0 mi West 5.8 mph - N/A   Overcast
12:15 PM 26.6 °F 19.1 °F 19.4 °F 74% 30.10 in 10.0 mi West 6.9 mph - N/A   Overcast
12:35 PM 26.6 °F 18.2 °F 19.4 °F 74% 30.10 in 10.0 mi NW 8.1 mph - N/A   Overcast
12:55 PM 28.4 °F 22.2 °F 19.4 °F 69% 30.11 in 10.0 mi West 5.8 mph - N/A   Overcast
1:15 PM 28.4 °F 21.2 °F 19.4 °F 69% 30.10 in 10.0 mi West 6.9 mph - N/A   Overcast
1:35 PM 28.4 °F 22.2 °F 19.4 °F 69% 30.09 in 10.0 mi WNW 5.8 mph - N/A   Overcast
1:55 PM 28.4 °F - 19.4 °F 69% 30.07 in 10.0 mi Calm Calm - N/A   Overcast
2:15 PM 28.4 °F - 19.4 °F 69% 30.07 in 10.0 mi Calm Calm - N/A   Overcast
2:35 PM 28.4 °F 24.6 °F 19.4 °F 69% 30.07 in 10.0 mi West 3.5 mph - N/A   Mostly Cloudy
2:55 PM 28.4 °F 22.2 °F 17.6 °F 64% 30.08 in 10.0 mi NW 5.8 mph - 0.01 in   Scattered Clouds
3:15 PM 28.4 °F 24.6 °F 17.6 °F 64% 30.07 in 10.0 mi North 3.5 mph - 0.01 in   Partly Cloudy
3:35 PM 28.4 °F 22.2 °F 17.6 °F 64% 30.03 in 10.0 mi NNE 5.8 mph - 0.01 in   Clear
3:55 PM 28.4 °F 24.6 °F 19.4 °F 69% 30.01 in 10.0 mi ENE 3.5 mph - 0.01 in   Clear
4:15 PM 26.6 °F 21.2 °F 17.6 °F 69% 30.03 in 10.0 mi NNE 4.6 mph - 0.01 in   Clear
4:35 PM 26.6 °F 22.6 °F 19.4 °F 74% 30.03 in 10.0 mi ENE 3.5 mph - 0.01 in   Scattered Clouds
4:55 PM 26.6 °F 22.6 °F 19.4 °F 74% 30.03 in 10.0 mi East 3.5 mph - 0.02 in   Mostly Cloudy
5:35 PM 26.6 °F 22.6 °F 19.4 °F 74% 30.02 in 10.0 mi East 3.5 mph - N/A   Partly Cloudy
5:55 PM 24.8 °F - 19.4 °F 80% 30.01 in 10.0 mi Calm Calm - N/A   Clear
6:15 PM 24.8 °F - 17.6 °F 74% 30.02 in 10.0 mi Calm Calm - N/A   Clear
6:35 PM 24.8 °F - 19.4 °F 80% 30.02 in 10.0 mi Calm Calm - N/A   Partly Cloudy
6:55 PM 23.0 °F 18.4 °F 17.6 °F 80% 30.01 in 10.0 mi East 3.5 mph - 0.01 in   Partly Cloudy
7:15 PM 23.0 °F 18.4 °F 19.4 °F 86% 30.00 in 10.0 mi East 3.5 mph - N/A   Partly Cloudy
7:35 PM 21.2 °F 16.4 °F 17.6 °F 86% 30.01 in 10.0 mi East 3.5 mph - N/A   Clear
7:55 PM 21.2 °F 14.9 °F 17.6 °F 86% 30.01 in 10.0 mi East 4.6 mph - N/A   Clear
8:15 PM 21.2 °F 16.4 °F 17.6 °F 86% 30.00 in 10.0 mi East 3.5 mph - N/A   Clear
8:35 PM 21.2 °F 16.4 °F 17.6 °F 86% 29.99 in 10.0 mi ENE 3.5 mph - N/A   Clear
8:55 PM 19.4 °F 12.8 °F 17.6 °F 93% 29.99 in 10.0 mi East 4.6 mph - N/A   Scattered Clouds
9:15 PM 21.2 °F 13.6 °F 17.6 °F 86% 29.96 in 10.0 mi East 5.8 mph - N/A   Scattered Clouds
9:35 PM 19.4 °F 11.5 °F 17.6 °F 93% 29.96 in 10.0 mi East 5.8 mph - N/A   Clear
9:55 PM 21.2 °F 11.7 °F 17.6 °F 86% 29.97 in 10.0 mi ESE 8.1 mph - N/A   Mostly Cloudy
10:15 PM 23.0 °F 13.9 °F 19.4 °F 86% 29.95 in 10.0 mi ESE 8.1 mph - N/A   Mostly Cloudy
10:35 PM 21.2 °F 12.6 °F 17.6 °F 86% 29.95 in 10.0 mi ESE 6.9 mph - N/A   Mostly Cloudy
10:55 PM 23.0 °F 15.8 °F 19.4 °F 86% 29.95 in 10.0 mi East 5.8 mph - N/A   Overcast
11:15 PM 21.2 °F 12.6 °F 19.4 °F 93% 29.93 in 10.0 mi East 6.9 mph - N/A   Overcast
11:35 PM 21.2 °F 13.6 °F 17.6 °F 86% 29.92 in 10.0 mi East 5.8 mph - N/A   Mostly Cloudy
11:55 PM 21.2 °F 16.4 °F 17.6 °F 86% 29.91 in 10.0 mi East 3.5 mph - N/A   Mostly Cloudy